www.pogodaiklimat.ru

Погода и климат >> Архив погоды >> Ирак >> Najaf


ПОГОДА в Najaf

  • Прогноз погоды в Najaf
  • Монитор погоды в Najaf
  • Климат города

АРХИВ ПОГОДЫ в Najaf

Время (UTC), дата Ветер
(напр.,м/с)
 
Видим.   Явления Облачность Т
(С)
Тd
(С)
f
(%)
Тe
(С)
Тes
(С)
Комфортность P
(гПа)
Po
(гПа)
Тmin
(С)
Tmax
(С)
R
(мм)
R24
(мм)
S
(см)
12 18.02 штиль 0 6000 м пыль 10/10 750 м
[Cu Sc]
+18.2 +9.2 56 +18 +18 1011.2 1011.0
15 18.02 штиль 0 6000 м пыль 10/10 750 м
[Cu Sc]
+17.4 +11.5 68 +17 +17 1010.9 1011.0
18 18.02 штиль 0 8000 м пыль 10/10 750 м
[Cu Sc]
+15.3 +11.8 80 +15 +15 1012.4 1012.0 +18.6
21 18.02 штиль 0 8000 м пыль 10/10 750 м
[Cu Sc]
+15.3 +11.8 80 +15 +15 1012.4 1012.0
00 19.02 штиль 0 10 км 8/8 750 м
[Cu Sc]
+14.6 +11.4 81 +14 +14 1012.4 1012.0
06 19.02 штиль 0 10 км ясно +14.2 +8.8 70 +14 +21 1016.3 1016.0 +12.8
09 19.02 штиль 0 10 км ясно +17.2 +7.9 54 +17 +33 опасность
простуды
1017.4 1017.0
12 19.02 СЗ 4 10 км 6/6 840 м
[Cu med, cong]
+18.8 +8.6 51 +19 +21 1010.3 1010.0
15 19.02 СЗ 2 10 км 3/3 840 м
[Cu med, cong]
+16.2 +9.7 65 +16 +16 1014.3 1014.0
18 19.02 штиль 0 10 км ясно +14.0 +10.1 77 +14 +14 1017.4 1017.0 +19.3
21 19.02 штиль 0 10 км ясно +12.7 +10.3 85 +12 +12 1017.8 1018.0
00 20.02 штиль 0 10 км ясно +11.0 +9.2 89 +10 +10 1017.9 1018.0
03 20.02 штиль 0 8000 м дымка ясно +10.2 +8.1 87 +9 +9 1018.5 1019.0
06 20.02 штиль 0 10 км ясно +11.5 +9.5 88 +11 +18 1019.5 1020.0 +9.7
09 20.02 штиль 0 10 км 8/3 840 м
[Cu hum Ac trans Ci sp]
+16.5 +9.8 65 +16 +24 1018.4 1018.0
12 20.02 штиль 0 10 км 8/3 840 м
[Cu med, cong Ac trans Ci sp]
+18.7 +8.0 50 +19 +22 1016.9 1017.0
15 20.02 штиль 0 10 км 9/9 750 м
[Cu Sc]
+16.7 +10.5 67 +17 +17 1016.6 1017.0
18 20.02 штиль 0 10 км 10/9 750 м
[Cu Sc Ci sp]
+15.8 +10.5 71 +16 +16 1016.6 1017.0 +19.2
21 20.02 штиль 0 10 км 10/9 750 м
[Cu Sc Ci sp]
+14.7 +10.1 74 +14 +14 1016.1 1016.0
03 21.02 штиль 0 10 км 10/10 750 м
[Cu Sc]
+13.6 +9.7 77 +13 +13 1013.7 1014.0
06 21.02 штиль 0 8000 м в посл. час дождь 10/10 750 м
[Cu Sc]
+15.0 +9.6 70 +15 +15 1011.8 1012.0 +12.8
09 21.02 Ю 3 8000 м пыль 8/8 840 м
[Cu Sc]
+20.2 +9.7 51 +22 +24 комфорт 1014.2 1014.0
12 21.02 Ю 4 10 км 9/9 750 м
[Cu Sc]
+22.7 +9.3 42 +24 +25 комфорт 1012.3 1012.0
15 21.02 н/о +21.4 +10.5 50 +45 +45 опасность
перегрева
1011.8 1011.2
18 21.02 штиль 0 10 км 5/5 840 м
[Cu med, cong]
+18.4 +9.5 56 +19 +19 1010.9 1011.0 +23.3
21 21.02 штиль 0 10 км 3/3 900 м
[Cu hum]
+16.0 +9.0 63 +16 +16 1010.8 1011.0
00 22.02 штиль 0 10 км 3/3 900 м
[Cu hum]
+15.0 +8.9 67 +15 +15 1010.6 1011.0
03 22.02 штиль 0 10 км ясно +13.6 +8.8 73 +13 +13 1009.6 1010.0
06 22.02 штиль 0 4000 м пыль ясно +15.0 +9.4 69 +15 +22 1011.3 1011.0 +12.5
09 22.02 СЗ 2 6000 м пыль 6/0
[Ci]
+19.5 +10.3 55 +21 +32 комфорт 1011.3 1011.0
12 22.02 штиль 0 6000 м пыль 5/0
[Ci sp]
+22.8 +10.8 47 +25 +32 комфорт 1009.8 1010.0
18 22.02 штиль 0 10 км 8/0
[Cs]
+17.5 +13.6 78 +17 +17 1011.5 1012.0 +23.6
21 22.02 штиль 0 10 км 5/0
[Ci sp]
+15.7 +12.6 82 +16 +16 1011.9 1012.0
00 23.02 штиль 0 10 км 3/0
[Ci sp]
+13.6 +11.7 88 +13 +13 1011.9 1012.0
06 23.02 штиль 0 10 км 4/4 900 м
[Cu hum]
+15.0 +12.0 82 +15 +19 1013.1 1013.0 +12.0
09 23.02 штиль 0 10 км 9/4
[Sc Cs]
+18.4 +12.1 67 +19 +27 1012.8 1013.0
12 23.02 штиль 0 10 км слабый дождь 9/8 840 м
[Cu Sc Ci sp]
+19.0 +11.9 63 +20 +21 1009.8 1010.0
15 23.02 штиль 0 6000 м слабый дождь 10/10 750 м
[Cu Sc]
+17.8 +12.6 72 +18 +18 1009.2 1009.0
21 23.02 штиль 0 6000 м слабый дождь 10/10 750 м
[Cu Sc]
+14.5 +12.8 90 +14 +14 1010.2 1010.0
00 24.02 штиль 0 5000 м в посл. час дождь 8/6 750 м
[Cu Sc Ci sp]
+14.0 +12.7 92 +14 +14 1009.2 1009.0
03 24.02 штиль 0 6000 м дымка 5/4 750 м
[Cu med, cong Ci sp]
+13.0 +11.5 91 +12 +12 1008.6 1009.0
06 24.02 штиль 0 8000 м дымка 9/4 750 м
[Cu med, cong As op]
+14.6 +11.8 83 +14 +16 1010.1 1010.0 +12.3 0.4
09 24.02 штиль 0 10 км 10/10 750 м
[Cu Sc]
+16.3 +12.5 78 +16 +16 1010.4 1010.0
12 24.02 штиль 0 10 км 9/9 750 м
[Cu Sc]
+18.4 +12.7 69 +19 +20 1012.6 1013.0
15 24.02 штиль 0 10 км 4/4 750 м
[Cu med, cong]
+17.8 +11.8 68 +18 +18 1009.9 1010.0
18 24.02 штиль 0 10 км 3/3 750 м
[Cu med, cong]
+15.7 +12.2 80 +16 +16 1010.3 1010.0 +18.8
21 24.02 штиль 0 8000 м дымка 1/1 750 м
[Cu hum]
+14.2 +11.8 85 +14 +14 1010.7 1011.0
00 25.02 штиль 0 8000 м дымка ясно +12.0 +8.5 79 +12 +12 1010.7 1011.0
03 25.02 штиль 0 8000 м дымка ясно +11.2 +10.2 94 +10 +10 1012.5 1013.0

 

Местоположение метеостанции Najaf (Ирак): широта 31.98 долгота 44.32 высота над уровнем моря 32 м.

В архиве по умолчанию представлена погода в Najaf за последнюю неделю. Архивные данные за месяц целиком и за предыдущие месяцы, начиная с января 2011 года, Вы можете получить, выбрав интересующий диапазон дат из раскрывающегося списка и нажав кнопку "Ввод!".

Внимание! Время в таблицах - всемирное. Для получения местного времени необходимо прибавить поправку, которая в Najaf равна 3 ч.

Смотрите также архив погоды в соседних городах и на ближайших метеорологических станциях:

Погода в Hella (Ирак) (54 км)
Погода в Diwaniya (Ирак) (62 км)
Погода в Karbalaa (Ирак) (77 км)
Погода в Samawah (Ирак) (118 км)
Погода в Azizyah (Ирак) (126 км)
Погода в Baghdad (Ирак) (139 км)
Погода в Ubaydah Bin Al Jarrah (Ирак) (146 км)
Погода в Kut-Al-Hai (Ирак) (164 км)
Погода в Rifai (Ирак) (171 км)
Погода в Ayn Al-Tamar (Ирак) (179 км)

Пояснения к столбцам:

Ветер - указаны скорость ветра в м/с - средняя за 10 мин, порывы в срок и между сроками (в фигурных скобках) и направление, откуда дует ветер: С - северный, СВ - северо-восточный, В - восточный, ЮВ - юго-восточный, Ю - южный, ЮЗ - юго-западный, З - западный, СЗ - северо-западный.
Видимость - горизонтальная дальность видимости в метрах или километрах. При видимости от 1 до 10 км при отсутствии осадков обычно наблюдается дымка, при ухудшении видимости до 1 км и менее - туман. В сухую погоду видимость может ухудшаться дымом, пылью или мглою.
Явления - указаны атмосферные явления, наблюдавшиеся в срок или в последний час перед сроком; фигурными скобками обозначены явления, наблюдавшиеся между сроками (за 1-3 часа до срока); квадратными скобками обозначены град или гололедные отложения с указанием их диаметра в мм.
Облачность - указаны через наклонную черту общая и нижняя облачность в баллах и высота нижней границы облаков в метрах; квадратными скобками обозначены формы облаков: Ci - перистые, Cs - перисто-слоистые, Cc - перисто-кучевые, Ac - высококучевые, As - высокослоистые, Sc - слоисто-кучевые, Ns - слоисто-дождевые, Cu - кучевые, Cb - кучево-дождевые. Подробнее классификацию облаков см. в Атласе облаков (PDF).
T - Температура воздуха - температура, измеренная на высоте 2 м над землей.
Td - Температура точки росы - температура, при понижении до которой содержащийся в воздухе водяной пар достигнет насыщения.
f - Относительная влажность воздуха - влажноcть воздуха, измеренная на высоте 2 м над землей.
Te - Эффективная температура - температура, которую ощущает одетый по сезону человек в тени. Характеристика душности погоды. При расчете учитывается влияние влажности воздуха и скорости ветра на теплоощущения человека.
Tes - Эффективная температура на солнце - температура, которую ощущает человек, с поправкой на солнечный нагрев. Характеристика знойности погоды. Зависит от высоты солнца над горизонтом, облачности и скорости ветра. Ночью, в пасмурную погоду, а также при ветре 12 м/с и более поправка равна нулю.
P - Атмосферное давление - приведенное к уровню моря атмосферное давление.
Po - Атмосферное давление - измеренное на уровне метеостанции атмосферное давление.
Tmin - Минимальная температура - минимум температуры воздуха на высоте 2 м над землей.
Tmax - Максимальная температура - максимум температуры воздуха на высоте 2 м над землей.
R - Количество осадков - Количество выпавших осадков за период времени, мм. При наведении курсора мыши на число - период времени, за который выпало указанное количество осадков.
R24 - Количество осадков - Количество выпавших осадков за 24 часа, мм.
S - Снежный покров - Высота снежного покрова, см. При наведении курсора мыши на число - состояние снежного покрова и степень покрытия местности в баллах.